Location: Espelette
(43.3402°N, 1.4474°W)
Time: 19:35:11
(UTC+00:00)

Cosmos 773 Rocket - Pass Details

Date: 19 May 2025
Orbit: 742 x 772 km, 74.1° (Epoch: 22 June)

Event Time Altitude Azimuth Distance (km) Brightness Sun altitude
Exits shadow 21:51:34 31° 190° (S) 1,284 4.8 -19.9°
Maximum altitude 21:54:02 79° 108° (ESE) 764 3.8 -20.2°
Drops below altitude 10° 21:59:10 10° 23° (NNE) 2,264 6.9 -20.7°
Sets 22:01:31 0° 22° (NNE) 3,190 7.7 -20.9°
